Location: Biltmore Gardens
(41.6070°N, 83.4666°W)
Time: 14:21:56
(UTC+00:00)

BREEZE-M DEB (TANK) - Pass Details

Date: 14 July 2020
Orbit: 426 x 13239 km, 46.0° (Epoch: 04 August)

Event Time Altitude Azimuth Distance (km) Brightness Sun altitude
Rises 08:42:53 0° 288° (WNW) 3,614 6.7 -13.9°
Reaches altitude 10° 08:46:07 10° 293° (WNW) 2,025 5.5 -13.5°
Maximum altitude 08:49:48 52° 12° (NNE) 560 3.2 -13.0°
Drops below altitude 10° 08:52:35 10° 92° (E) 1,537 5.7 -12.7°
Sets 08:54:41 0° 98° (E) 2,587 6.8 -12.4°
